Weather Roundup
Issued by NWS Chicago, IL

Home | Current Version | Previous Version | Graphics & Text | Print | Product List | Glossary On
Versions: 1 2 3 4 5 6 7 8 9 10 11 12 13 14 15 16 17 18 19 20 21 22 23 24 25 26 27 28 29 30 31 32 33 34 35 36 37 38 39 40 41 42 43 44 45 46 47 48 49 50
000
NZUS59 KLOT 242308
HRRLOT

CHICAGO AREA WEATHER ROUNDUP
NATIONAL WEATHER SERVICE CHICAGO/ROMEOVILLE IL
600 PM CDT TUE MAY 24 2016

NOTE: "FAIR" INDICATES FEW OR NO CLOUDS BELOW 12,000 FEET WITH NO
SIGNIFICANT WEATHER AND/OR OBSTRUCTIONS TO VISIBILITY.

* THESE STATIONS ARE NOT UNDER NWS QUALITY CONTROL. THEY ALSO MAY NOT
  REPORT WEATHER SUCH AS PRECIPITATION OR FOG.

ILZ005-006-012>014-019>023-250000-
NORTHEAST ILLINOIS

CITY           SKY/WX    TMP DP  RH WIND       PRES   REMARKS
OHARE          MOSUNNY   85  47  26 S14       29.91F HX  82
MIDWAY         MOSUNNY   88  48  25 SW13      29.92F HX  85
AURORA         SUNNY     86  53  32 S14       29.92F HX  84
LANSING*       SUNNY     85  49  28 SW12G20   29.94S HX  83
JOLIET*        SUNNY     87  54  32 SW12      29.92S HX  85
WAUKEGAN       SUNNY     83  51  33 SW9       29.91F HX  81
DUPAGE AIRPORT SUNNY     85  51  31 S8        29.91F HX  83
WHEELING       SUNNY     87  47  24 SW8       29.92F HX  84
KANKAKEE*      SUNNY    N/A N/A N/A S14       29.95S
MORRIS*        SUNNY     87  52  30 S14G20    29.91S HX  84
LEWIS AIRPORT* SUNNY     85  47  25 SW10G21   29.92S HX  83
$$

WIZ051-052-058>065-066-070>072-250000-
SOUTHEAST WISCONSIN

CITY           SKY/WX    TMP DP  RH WIND       PRES   REMARKS
MILWAUKEE      PTSUNNY   77  59  53 N9        29.91F
KENOSHA*       SUNNY     84  52  33 S13       29.91F HX  82
RACINE*        CLOUDY    74  50  42 S10       29.93S
BURLINGTON     CLOUDY    83  52  34 SW9G16    29.92S HX  82
WAUKESHA       MOSUNNY   79  57  47 W7        29.94S HX  80
WEST BEND      MOSUNNY   79  59  50 SW6       29.92S HX  80
$$

INZ001>003-010>013-019-020-250000-
NORTHWEST INDIANA

CITY           SKY/WX    TMP DP  RH WIND       PRES   REMARKS
GARY*          MOSUNNY   88  57  35 SW14      29.93F HX  86
MICHIGAN CITY* NOT AVBL
RENSSELAER*    NOT AVBL
VALPARAISO     SUNNY     85  45  24 S15       29.96F HX  82
$$

LMZ740>746-250000-
SOUTHERN LAKE MICHIGAN

STATION/POSITION TIME  SKY/WX   TEMP WIND        PRES    VSBY
                                AIR  DIR/SP/G
                 (UTC)          (F)  (DEG/KT/KT) (MB)    (MI)
HARRISON CRIB    2200            86  220/ 22/ 25   N/A
BURNHAM HARBOR   2300            86  190/  8/ 15   N/A
CALUMET HARBOR   2200            86                N/A
BURNS HARBOR     2200            84  210/ 13/ 19 1014.2F
MICHIGAN CITY    2200            83  190/ 12/ 15   N/A
$$

ABBREVIATIONS USED IN REMARKS
   TC - TEMPERATURE IN CELSIUS
  WCI - WIND CHILL INDEX
   HX - HEAT INDEX
  VSB - VISIBILITY
$$




USA.gov is the U.S. government's official web portal to all federal, state and local government web resources and services.